Погода в Гёттингене

Германия     51°32′17″N   9°56′02″E
темп.,
°C
ветер,
м/с
пор.,
м/с
влажн.,
%
обл.,
%
осадки,
мм/ч
давл.,
гПа
погр.,
м
20 января, ср
ср2001:00+2юз71590100 0.3 1008468
04:00+1ююз71784100 0.0 1006535
07:00+2юз71780100 0.0 1005530
10:00+3юз71874100 0.0 1004588
13:00+6ююз71872100 0.0 1003742
16:00+5ююз5168099 0.0 1002573
19:00+4ю5178499 0.0 1002578
22:00+5ююз5188199 0.0 1002679
21 января, чт
чт2101:00+4ю4178199 0.0 1000705
04:00+5ююз62176100 0.0 9971033
07:00+3ююв5207195 0.0 995971
10:00+7ююз7207739 0.0 9961269
13:00+7юз8147070 1.7 9971172
16:00+5ююз5137193 0.0 997929
19:00+4ююз5167897 0.0 996700
22:00+5ю61689100 0.3 992887
22 января, пт
пт2201:00+8ююз82080100 1.1 9891447
04:00+8ююз112282100 1.3 9861499
07:00+3з71491100 2.6 989772
10:00+4зюз61172100 0.0 9921182
13:00+5юз697198 0.0 9931009
16:00+4юз4978100 0.0 993738
19:00+2ююз3986100 0.0 995293
22:00+1ююз369211 0.0 995143
23 января, сб
сб2301:000ююз359314 0.0 996131
04:000ю249698 0.0 995113
07:00+2ююз279199 0.0 995468
10:00+2ююз3989100 0.0 995639
13:00+4ююз4777100 0.0 994896
16:00+3юз4887100 0.0 994468
19:000юз369187 0.0 996151
22:00+1зсз589163 0.1 997623
24 января, вс
вс2401:00+1з489081 0.2 999433
04:00−2зюз379561 0.0 1000206
07:00−2юз229450 0.0 100141
10:000ююз238237 0.0 1001220
13:00+2ююз346552 0.0 1001796
16:00+1ююв247524 0.0 1000154
19:00−1ююв228845 0.0 100023
22:00−1ююв2291100 0.0 100045